Location: Andrest
(43.3200°N, 0.0641°E)
Time: 14:07:20
(UTC+00:00)

Cosmos 2297 - Pass Details

Date: 01 December 2020
Orbit: 834 x 860 km, 71.0° (Epoch: 22 January)

Event Time Altitude Azimuth Distance (km) Brightness Sun altitude
Rises 16:46:48 0° 337° (NNW) 3,413 6.8 -4.3°
Reaches altitude 10° 16:49:16 10° 340° (NNW) 2,478 6.1 -4.7°
Maximum altitude 16:54:56 68° 63° (ENE) 917 3.7 -5.7°
Drops below altitude 10° 17:00:37 10° 146° (SSE) 2,479 6.1 -6.6°
Sets 17:03:05 0° 149° (SSE) 3,414 6.8 -7.0°
